| time (UTC) | temp C | wind direction | speed KPH | gust KPH | rain 1hr cm | rain 24hr cm | rain mn cm | humidity % | barometer mb |
| 20260906124510 | 14 | 103 | 0.0 | 0.0 | 0.00 | 0.28 | 0.18 | 94 | 1019.8 |
| 20260906123009 | 14 | 355 | 0.0 | 0.0 | 0.00 | 0.28 | 0.18 | 95 | 1019.7 |
| 20260906121509 | 13 | 355 | 0.0 | 0.0 | 0.00 | 0.28 | 0.18 | 95 | 1019.6 |
| 20260906120008 | 13 | 95 | 0.0 | 0.0 | 0.00 | 0.28 | 0.18 | 95 | 1019.6 |
| 20260906114507 | 13 | 95 | 0.0 | 0.0 | 0.00 | 0.28 | 0.18 | 95 | 1019.4 |
| 20260906113005 | 13 | 95 | 0.0 | 0.0 | 0.00 | 0.28 | 0.18 | 95 | 1019.2 |
| 20260906111505 | 12 | 95 | 0.0 | 0.0 | 0.00 | 0.28 | 0.18 | 95 | 1019.0 |
| 20260906110003 | 12 | 95 | 0.0 | 0.0 | 0.00 | 0.28 | 0.18 | 95 | 1019.0 |
| 20260906104503 | 12 | 95 | 0.0 | 0.0 | 0.00 | 0.28 | 0.18 | 95 | 1018.9 |
| 20260906103001 | 12 | 95 | 0.0 | 0.0 | 0.00 | 0.28 | 0.18 | 95 | 1018.7 |
| 20260906101600 | 12 | 95 | 0.0 | 0.0 | 0.00 | 0.28 | 0.18 | 95 | 1018.6 |
| 20260906100059 | 12 | 95 | 0.0 | 0.0 | 0.00 | 0.28 | 0.18 | 95 | 1018.5 |
| 20260906094557 | 12 | 95 | 0.0 | 0.0 | 0.00 | 0.28 | 0.18 | 95 | 1018.3 |
| 20260906093056 | 12 | 95 | 0.0 | 0.0 | 0.00 | 0.28 | 0.18 | 94 | 1018.1 |
| 20260906091556 | 12 | 95 | 0.0 | 0.0 | 0.03 | 0.28 | 0.18 | 94 | 1018.1 |
| 20260906090058 | 13 | 95 | 0.0 | 0.0 | 0.10 | 0.28 | 0.18 | 94 | 1018.2 |
| 20260906084555 | 13 | 95 | 0.0 | 0.0 | 0.15 | 0.28 | 0.18 | 94 | 1018.2 |
| 20260906083054 | 13 | 95 | 0.0 | 0.0 | 0.18 | 0.28 | 0.18 | 94 | 1018.2 |
| 20260906081555 | 13 | 95 | 0.0 | 0.0 | 0.15 | 0.25 | 0.15 | 94 | 1018.4 |
| 20260906080052 | 13 | 95 | 0.0 | 0.0 | 0.08 | 0.18 | 0.08 | 94 | 1017.9 |
| 20260906074549 | 13 | 95 | 0.0 | 0.0 | 0.03 | 0.13 | 0.03 | 94 | 1017.8 |
| 20260906073048 | 13 | 95 | 0.0 | 0.0 | 0.00 | 0.10 | 0.00 | 94 | 1017.8 |
| 20260906071558 | 13 | 95 | 0.0 | 0.0 | 0.00 | 0.10 | 0.00 | 94 | 1017.7 |
| 20260906070045 | 13 | 95 | 0.0 | 0.0 | 0.00 | 0.10 | 0.00 | 94 | 1017.6 |
| 20260906064544 | 13 | 95 | 0.0 | 0.0 | 0.00 | 0.10 | 0.00 | 94 | 1017.5 |
| 20260906063044 | 13 | 95 | 0.0 | 0.0 | 0.00 | 0.10 | 0.00 | 94 | 1017.4 |
| 20260906061543 | 13 | 95 | 0.0 | 0.0 | 0.00 | 0.10 | 0.00 | 94 | 1017.4 |
| 20260906060042 | 13 | 95 | 0.0 | 0.0 | 0.00 | 0.10 | 0.00 | 94 | 1017.4 |
| 20260906054540 | 14 | 95 | 0.0 | 0.0 | 0.00 | 0.10 | 0.00 | 94 | 1017.3 |
| 20260906053042 | 14 | 95 | 0.0 | 0.0 | 0.00 | 0.10 | 0.00 | 94 | 1017.4 |
| 20260906051536 | 15 | 95 | 0.0 | 0.0 | 0.00 | 0.10 | 0.00 | 94 | 1017.5 |
| 20260906050035 | 15 | 95 | 0.0 | 0.0 | 0.00 | 0.10 | 0.00 | 94 | 1017.5 |
| 20260906044533 | 15 | 95 | 0.0 | 0.0 | 0.00 | 0.10 | 0.00 | 94 | 1017.3 |
| 20260906043033 | 15 | 95 | 0.0 | 0.0 | 0.00 | 0.10 | 0.00 | 94 | 1017.2 |
| 20260906041528 | 15 | 95 | 0.0 | 0.0 | 0.00 | 0.10 | 0.00 | 94 | 1017.3 |
| 20260906040030 | 15 | 95 | 0.0 | 0.0 | 0.00 | 0.10 | 0.10 | 94 | 1017.3 |
| 20260906034533 | 15 | 95 | 0.0 | 0.0 | 0.00 | 0.10 | 0.10 | 94 | 1017.2 |
| 20260906033027 | 15 | 95 | 0.0 | 0.0 | 0.00 | 0.10 | 0.10 | 94 | 1017.0 |
| 20260906031521 | 15 | 95 | 0.0 | 0.0 | 0.00 | 0.10 | 0.10 | 94 | 1016.7 |
| 20260906030021 | 15 | 95 | 0.0 | 0.0 | 0.00 | 0.10 | 0.10 | 94 | 1016.7 |
| 20260906024520 | 15 | 95 | 0.0 | 0.0 | 0.00 | 0.10 | 0.10 | 93 | 1016.7 |
| 20260906023019 | 15 | 95 | 0.0 | 0.0 | 0.00 | 0.10 | 0.10 | 93 | 1016.6 |
| 20260906021523 | 15 | 95 | 0.0 | 0.0 | 0.00 | 0.10 | 0.10 | 93 | 1016.7 |
| 20260906020020 | 16 | 95 | 0.0 | 0.0 | 0.00 | 0.10 | 0.10 | 93 | 1016.7 |
| 20260906014531 | 16 | 95 | 0.0 | 0.0 | 0.00 | 0.10 | 0.10 | 93 | 1016.8 |
| 20260906013018 | 16 | 95 | 0.0 | 0.0 | 0.00 | 0.10 | 0.10 | 93 | 1016.9 |
| 20260906011532 | 16 | 95 | 0.0 | 0.0 | 0.00 | 0.10 | 0.10 | 93 | 1016.9 |
| 20260906010016 | 16 | 94 | 0.0 | 0.0 | 0.00 | 0.10 | 0.10 | 93 | 1016.8 |
| 20260906004526 | 16 | 95 | 0.0 | 0.0 | 0.00 | 0.10 | 0.10 | 93 | 1016.8 |
| 20260906003014 | 16 | 95 | 0.0 | 0.0 | 0.00 | 0.10 | 0.10 | 92 | 1016.6 |
| 20260906001512 | 16 | 95 | 0.0 | 0.0 | 0.00 | 0.10 | 0.10 | 92 | 1016.5 |
| 20260906000012 | 16 | 95 | 0.0 | 0.0 | 0.00 | 0.10 | 0.10 | 92 | 1016.3 |
| 20260905234511 | 16 | 95 | 0.0 | 0.0 | 0.00 | 0.10 | 0.10 | 91 | 1016.3 |
| 20260905233010 | 16 | 95 | 0.0 | 0.0 | 0.00 | 0.10 | 0.10 | 91 | 1016.1 |
| 20260905231510 | 17 | 95 | 0.0 | 0.0 | 0.00 | 0.10 | 0.10 | 91 | 1016.2 |
| 20260905230014 | 17 | 95 | 0.0 | 0.0 | 0.00 | 0.10 | 0.10 | 90 | 1016.2 |
| 20260905224520 | 17 | 95 | 0.0 | 0.0 | 0.00 | 0.10 | 0.10 | 90 | 1016.2 |
| 20260905223008 | 17 | 95 | 0.0 | 0.0 | 0.00 | 0.10 | 0.10 | 90 | 1016.0 |
| 20260905221506 | 17 | 95 | 0.0 | 0.0 | 0.00 | 0.10 | 0.10 | 89 | 1015.9 |
| 20260905220005 | 18 | 95 | 0.0 | 0.0 | 0.00 | 0.10 | 0.10 | 88 | 1015.6 |
| 20260905214502 | 18 | 95 | 0.0 | 0.0 | 0.00 | 0.10 | 0.10 | 87 | 1015.3 |
| 20260905213001 | 18 | 95 | 0.0 | 0.0 | 0.00 | 0.10 | 0.10 | 87 | 1015.4 |
| 20260905211501 | 18 | 102 | 0.0 | 0.0 | 0.00 | 0.10 | 0.10 | 88 | 1015.4 |
| 20260905210100 | 18 | 91 | 0.0 | 0.0 | 0.00 | 0.10 | 0.10 | 89 | 1015.2 |
| 20260905204603 | 18 | 94 | 0.0 | 0.0 | 0.00 | 0.10 | 0.10 | 88 | 1015.0 |
| 20260905203101 | 18 | 93 | 0.0 | 0.0 | 0.00 | 0.10 | 0.10 | 89 | 1015.1 |
| 20260905201558 | 18 | 89 | 0.0 | 0.0 | 0.00 | 0.10 | 0.10 | 88 | 1015.0 |
| 20260905200105 | 18 | 86 | 0.0 | 0.0 | 0.03 | 0.10 | 0.10 | 90 | 1014.9 |
| 20260905194556 | 18 | 96 | 0.0 | 0.0 | 0.10 | 0.10 | 0.10 | 91 | 1014.9 |
| 20260905193107 | 17 | 58 | 0.0 | 0.0 | 0.10 | 0.10 | 0.10 | 90 | 1014.8 |
| 20260905191559 | 17 | 85 | 0.0 | 0.0 | 0.10 | 0.10 | 0.10 | 89 | 1014.9 |
| 20260905190059 | 18 | 75 | 0.0 | 0.0 | 0.08 | 0.08 | 0.08 | 87 | 1014.9 |
| 20260905184552 | 20 | 304 | 0.0 | 0.0 | 0.00 | 0.00 | 0.00 | 79 | 1014.9 |
| 20260905183056 | 21 | 338 | 0.0 | 0.0 | 0.00 | 0.00 | 0.00 | 74 | 1014.4 |
| 20260905181550 | 21 | 325 | 0.0 | 0.0 | 0.00 | 0.00 | 0.00 | 76 | 1014.2 |
| 20260905180053 | 21 | 61 | 0.0 | 0.0 | 0.00 | 0.00 | 0.00 | 74 | 1014.3 |
| 20260905174548 | 21 | 106 | 0.0 | 0.0 | 0.00 | 0.00 | 0.00 | 73 | 1014.3 |
| 20260905173050 | 21 | 83 | 0.0 | 0.0 | 0.00 | 0.00 | 0.00 | 76 | 1014.4 |
| 20260905171546 | 20 | 330 | 0.0 | 0.0 | 0.00 | 0.00 | 0.00 | 80 | 1014.3 |
| 20260905170052 | 20 | 241 | 0.0 | 0.0 | 0.00 | 0.00 | 0.00 | 84 | 1014.5 |
| 20260905164545 | 20 | 336 | 0.0 | 0.0 | 0.00 | 0.00 | 0.00 | 83 | 1014.6 |
| 20260905163043 | 21 | 69 | 0.0 | 0.0 | 0.00 | 0.00 | 0.00 | 75 | 1014.4 |
| 20260905161542 | 20 | 25 | 0.0 | 0.0 | 0.00 | 0.00 | 0.00 | 74 | 1014.4 |
| 20260905160047 | 20 | 245 | 0.0 | 0.0 | 0.00 | 0.00 | 0.00 | 74 | 1014.5 |
| 20260905154542 | 20 | 94 | 0.0 | 0.0 | 0.00 | 0.00 | 0.00 | 75 | 1014.2 |
| 20260905153040 | 21 | 39 | 0.0 | 0.0 | 0.00 | 0.00 | 0.00 | 75 | 1014.3 |
| 20260905151542 | 20 | 66 | 0.0 | 0.0 | 0.00 | 0.00 | 0.00 | 77 | 1014.4 |
| 20260905150039 | 20 | 80 | 0.0 | 0.0 | 0.00 | 0.00 | 0.00 | 76 | 1014.4 |
| 20260905144545 | 20 | 343 | 0.0 | 0.0 | 0.00 | 0.00 | 0.00 | 75 | 1014.3 |
| 20260905143048 | 20 | 77 | 0.0 | 0.0 | 0.00 | 0.00 | 0.00 | 79 | 1014.3 |
| 20260905141534 | 20 | 334 | 0.0 | 0.0 | 0.00 | 0.00 | 0.00 | 79 | 1014.3 |
| 20260905140032 | 20 | 98 | 0.0 | 0.0 | 0.00 | 0.00 | 0.00 | 78 | 1014.2 |
| 20260905134531 | 20 | 335 | 0.0 | 0.0 | 0.00 | 0.00 | 0.00 | 79 | 1013.9 |
| 20260905133029 | 20 | 134 | 0.0 | 0.0 | 0.00 | 0.00 | 0.00 | 78 | 1013.8 |
| 20260905131541 | 20 | 71 | 0.0 | 0.0 | 0.00 | 0.00 | 0.00 | 81 | 1013.6 |
| 20260905130025 | 19 | 224 | 0.0 | 0.0 | 0.00 | 0.00 | 0.00 | 83 | 1013.6 |